Location: *
(40.7873°S, 98.7174°E)
Time: 14:31:57
(UTC+00:00)

ARIANE 6 FM1 Upper Stage - Visible Passes

Search period start: 15 December 2025 00:00
Search period end: 25 December 2025 00:00
Orbit: 522 x 611 km, 62.0° (Epoch: 14 December)

Date Brightness Start Highest point End Pass type
(mag) Time Alt. Az. Time Alt. Az. Time Alt. Az.
15 Dec 4.7 18:52:06 10° SSW 18:56:08 30° SE 19:00:04 10° ENE visible
15 Dec 3.4 20:31:08 10° SW 20:35:13 34° WNW 20:39:11 10° N visible
16 Dec 4.0 18:52:20 10° SSW 18:56:40 42° SE 19:00:51 10° ENE visible
16 Dec 4.0 20:31:56 10° WSW 20:35:29 23° WNW 20:38:26 12° NNW visible
17 Dec 5.8 17:15:16 10° S 17:17:07 12° SSE 17:18:57 10° SE visible
17 Dec 3.3 18:52:38 10° SSW 18:57:08 60° SE 19:00:10 19° NE visible
17 Dec 4.4 20:33:02 10° WSW 20:35:42 16° WNW 20:36:03 15° WNW visible
18 Dec 5.6 17:15:03 10° S 17:17:48 16° SE 17:20:31 10° ESE visible
18 Dec 2.7 18:52:59 10° SW 18:57:32 88° SE 18:58:43 49° NE visible
19 Dec 5.2 17:15:03 10° S 17:18:26 20° SE 17:21:45 10° E visible
19 Dec 2.8 18:53:26 10° SW 18:57:46 63° WNW 18:57:46 63° WNW visible
20 Dec 4.8 17:15:09 10° SSW 17:19:00 26° SE 17:21:08 18° E visible
20 Dec 3.7 18:53:58 10° SW 18:57:06 35° W 18:57:06 35° W visible
21 Dec 4.2 17:15:20 10° SSW 17:19:32 35° SE 17:20:39 31° ESE visible
21 Dec 4.5 18:54:38 10° WSW 18:56:38 21° WSW 18:56:38 21° WSW visible
22 Dec 5.7 15:38:43 10° SSE 15:39:52 11° SSE 15:41:01 10° SE visible
22 Dec 3.5 17:15:34 10° SSW 17:19:59 50° SE 17:20:19 49° ESE visible
22 Dec 5.1 18:55:31 10° WSW 18:56:18 13° WSW 18:56:18 13° WSW visible
23 Dec 5.5 15:38:12 10° S 15:40:32 14° SSE 15:42:51 10° ESE visible
23 Dec 3.0 17:15:51 10° SSW 17:20:05 69° SSE 17:20:05 69° SSE visible
24 Dec 5.2 15:38:05 10° S 15:41:09 18° SE 15:43:57 11° ESE visible
24 Dec 3.2 17:16:14 10° SW 17:19:57 58° SW 17:19:57 58° SW visible
